Regional Weather Roundup
Issued by NWS

Home | Current Version | Previous Version | Text Only | Print | Product List | Glossary On
Versions: 1 2 3 4 5 6 7 8 9 10 11 12 13 14 15 16 17 18 19 20 21 22 23 24 25 26 27 28 29 30 31 32 33 34 35 36 37 38 39 40 41 42 43 44 45 46 47 48 49 50
000
ASUS43 KLMK 111102
RWRKY
KENTUCKY REGIONAL WEATHER ROUNDUP
NATIONAL WEATHER SERVICE LOUISVILLE KY
700 AM EDT FRI JUL 11 2014

NOTE "FAIR" INDICATES FEW OR NO CLOUDS BELOW 12,000 FEET
WITH NO SIGNIFICANT WEATHER AND/OR OBSTRUCTIONS TO VISIBILITY.

KYZ001>023-026-027-061>063-070>075-111200-
WESTERN AND SOUTH CENTRAL KENTUCKY

CITY           SKY/WX    TMP DP  RH WIND       PRES   REMARKS
PADUCAH        CLEAR     66  63  90 CALM      30.14R FOG
HENDERSON      CLEAR     61  57  88 CALM      30.15R
OWENSBORO      CLEAR     65  60  83 CALM      30.16R
HOPKINSVILLE   CLEAR     65  64  97 CALM      30.15R
BOWLING GREEN  CLEAR     64  61  90 CALM      30.15R
GLASGOW        NOT AVBL
$$

KYZ024-025-028>034-038-045-046-053-111200-
NORTH CENTRAL KENTUCKY

CITY           SKY/WX    TMP DP  RH WIND       PRES   REMARKS
LOUISVILLE/SDF PTCLDY    66  60  81 N5        30.17R
LOUISVILLE/LOU CLEAR     63  60  90 CALM      30.18R
FORT KNOX      PTCLDY    63  59  86 N2        30.16R
$$

KYZ035>037-039>044-047>052-055>060-089>105-111200-
NORTHEAST KENTUCKY

CITY           SKY/WX    TMP DP  RH WIND       PRES   REMARKS
LEXINGTON      CLEAR     62  57  83 NE6       30.18R
COVINGTON      PTCLDY    63  55  75 N5        30.19R
FRANKFORT      CLEAR     63  58  83 CALM      30.17R
$$

KYZ054-064>069-076>088-106>120-111200-
SOUTHEAST KENTUCKY

CITY           SKY/WX    TMP DP  RH WIND       PRES   REMARKS
JACKSON        CLEAR     66  60  81 CALM      30.19R
LONDON         CLEAR     65  61  87 CALM      30.18R
SOMERSET       CLEAR     61  61 100 CALM      30.18R FOG
MIDDLESBORO    FOG       61  61 100 CALM      30.20R VSB 1/2
MONTICELLO     SUNNY     59  58  96 CALM      30.19R FOG
$$



USA.gov is the U.S. government's official web portal to all federal, state and local government web resources and services.